sat.trackr.live / text

‹ back to catalog

STARLINK-34800

NORAD 65361 · 2025-190L

PAYLOAD ACTIVE UNKNOWN

§ Identity

Operator
Country
US
Launch date
2025-08-28
Launch site
AFETR
Launch vehicle
Mass (kg)
RCS (m²)

Purposes: comms

External: N2YO · Heavens-Above · Gunter

§ Orbital elements

Epoch: 2026-09-20T22:23:36.188736Z

Period
93.85 min
Inclination
53.1599°
Eccentricity
0.0001385
Mean motion
15.34408449 rev/d
Perigee alt
461.7 km
Apogee alt
463.6 km
Semi-major
6,840.8 km
B*
4.5622e-4
RAAN
339.4651°
Arg perigee
79.2839°
Mean anomaly
280.8320°
Rev number
5,920

§ Raw data

STARLINK-348001 65361U 25190L   26263.93305774  .00015073  00000+0  45622-3 0  99922 65361  53.1599 339.4651 0001385  79.2839 280.8320 15.34408449 59202

JSON: /api/v1/satellites/65361 · /tle

For live sub-satellite position, see the globe view (requires WebGL).

§ Visibility from observer

Set your observer location to see the next 7 days of passes ≥ 10°. The values pass through the URL so the page stays shareable.

No JS? Fill the form by hand. The geolocation button needs JavaScript.